Regional Weather Roundup
Issued by NWS

Home | Current Version | Previous Version | Graphics & Text | Print | Product List | Glossary On
Versions: 1 2 3 4 5 6 7 8 9 10 11 12 13 14 15 16 17 18 19 20 21 22 23 24 25 26 27 28 29 30 31 32 33 34 35 36 37 38 39 40 41 42 43 44 45 46 47 48 49 50
000
ASUS43 KDMX 211106
RWRIA

WEATHER ROUNDUP FOR IOWA
NATIONAL WEATHER SERVICE DES MOINES IA
600 AM CDT MON AUG 21 2017

NOTE: "FAIR" INDICATES FEW OR NO CLOUDS BELOW 12,000 FEET WITH NO
SIGNIFICANT WEATHER AND/OR OBSTRUCTIONS TO VISIBILITY.

* - THESE STATIONS ARE NOT NWS STATIONS...THUS NOT UNDER NWS
QUALITY CONTROL.  THEY ALSO DO NOT REPORT WEATHER SUCH
AS PRECIPITATION OR FOG.

IAZ001>003-012>014-020>022-031>034-043>046-211200-
   NORTHWEST IOWA

CITY           SKY/WX    TMP DP  RH WIND       PRES   REMARKS
CARROLL *      CLOUDY    68  64  88 SE12      30.03F
LE MARS *      CLOUDY   104 N/A N/A CALM      29.98F
ORANGE CITY *  CLOUDY    70  70 100 CALM      29.99F
SHELDON *      CLOUDY    68  66  94 SE6       29.98F
SIOUX CITY     CLOUDY    68  66  93 SE12      29.99S
SPENCER        CLOUDY    67  66  97 SE9       30.01F
STORM LAKE *   RAIN      64  64 100 SE10G16   30.02R VSB 1/2
$$

IAZ055>058-069>071-079>083-090>094-211200-
   SOUTHWEST IOWA

CITY           SKY/WX    TMP DP  RH WIND       PRES   REMARKS
AUDUBON *      LGT RAIN  66  63  88 E5        30.09R
CLARINDA *     CLOUDY    70  66  88 E13       30.07R
COUNCIL BLFS * CLOUDY    70  68  94 SE17G25   30.03R
CRESTON *      LGT RAIN  66  64  94 NE14G23   30.10R
HARLAN  *      CLOUDY    68  64  88 SE10G20   30.08S
LAMONI         CLOUDY    70  67  90 NE12      30.06F
RED OAK *      LGT RAIN  68  66  94 NE13      30.06R
SHENANDOAH *   CLOUDY    70  66  88 E14G21    30.04S
$$

IAZ047>049-059>061-072>074-084-211200-
   CENTRAL IOWA

CITY           SKY/WX    TMP DP  RH WIND       PRES   REMARKS
AMES           LGT RAIN  68  68 100 E9        30.13R
ANKENY *       LGT RAIN  68  64  88 NE14      30.08F
BOONE *        LGT RAIN  68  64  88 E7G16     30.13R
CHARITON *     CLOUDY    68  64  88 N9        30.09R
DES MOINES     TSTM      69  65  86 NE16      30.05R
GRINNELL*      RAIN      68  66  93 NW13G23   30.12S
KNOXVILLE *    CLOUDY    68  64  88 N8        30.09R
MARSHALLTOWN   RAIN      68  66  93 NW14      30.15R
NEWTON *       CLOUDY    68  66  94 N23G31    30.13R
PELLA *        RAIN      68  66  93 N7        30.13R
PERRY *        LGT RAIN  67  65  96 NE13G20   30.09R
$$

IAZ004>006-015-016-023>025-035-036-211200-
   NORTH CENTRAL IOWA

CITY           SKY/WX    TMP DP  RH WIND       PRES   REMARKS
ALGONA *       CLOUDY    68  68 100 S9        30.03S
CLARION *      CLOUDY    70  63  78 S22G33    30.03R
ESTHERVILLE    CLOUDY    68  68 100 S13       30.01F
FORT DODGE *   CLOUDY    68  61  77 E7G24     30.02F
FOREST CITY *    N/A     68  64  88 SW7       30.04S
WEBSTER CITY * LGT RAIN  68  64  88 SE23G36   30.00F
IOWA FALLS *   RAIN      68  65  90 SE8       30.16S
$$

IAZ007>011-017>019-026>030-037>042-050>054-066-211200-
   NORTHEAST IOWA

CITY           SKY/WX    TMP DP  RH WIND       PRES   REMARKS
CEDAR RAPIDS   TSTM      70  68  93 NW17G24   30.11R
CHARLES CITY * CLOUDY    70  70 100 SW17G28   30.06F
CLINTON *      FOG       65  65 100 W5        30.06R VSB 1/4
DECORAH *      CLOUDY    66  66 100 SW3       30.07R
DUBUQUE        CLOUDY    66  65  96 N7        30.06R FOG
MONTICELLO *   CLOUDY    64  64 100 W5        30.09R FOG
OELWEIN *      CLOUDY    70  68  94 CALM      30.09S
WATERLOO       LGT RAIN  69  66  90 W16G24    30.10R
$$

IAZ064-065-067-068-078-211200-
   EAST CENTRAL IOWA

CITY           SKY/WX    TMP DP  RH WIND       PRES   REMARKS
DAVENPORT      FOG       66  65  96 N3        30.06R VSB 1/2
IOWA CITY      TSTM      71  68  90 W12G18    30.14R
MUSCATINE *    CLOUDY    68  66  94 NW12      30.08R
QUAD CITIES    MOCLDY    66  64  93 CALM      30.03S
$$

IAZ062-063-075>077-085>089-095>099-211200-
   SOUTHEAST IOWA

CITY           SKY/WX    TMP DP  RH WIND       PRES   REMARKS
BURLINGTON     CLOUDY    69  69 100 CALM      30.04R
FAIRFIELD *    CLOUDY    70  66  88 N12G18    30.09R
FORT MADISON * CLOUDY    68  68 100 CALM      30.05R
KEOKUK *       CLOUDY    72  68  88 S5        30.04R
OSKALOOSA *    LGT RAIN  68  66  95 NE7       30.07F
OTTUMWA        CLOUDY    70  68  93 N8        30.08S
$$

ABBREVIATIONS USED IN REMARKS
   TC - TEMPERATURES IN CELSIUS
  WCI - WIND CHILL INDEX
   HX - HEAT INDEX
  VSB - VISIBILITY
$$




USA.gov is the U.S. government's official web portal to all federal, state and local government web resources and services.